This demonstration page uses our WeatherBlox Daily Observations layout. Learn more.

Left ArrowRight Arrow

Hourly Observations for June 18, 2018

Temp ( °F °C ) Dew Point ( °F °C ) Humidity (%) Winds ( mph kmh ) Pressure ( in mb ) Visibility ( mi km ) Precip ( " mm )
12:53 am 00:53 Clear 70 21.1 65 18.3 84 84 SE 7 11 29.83 1010 10 16 0.00 0.00
1:53 am 01:53 Clear 69 20.6 65 18.3 87 87 SE 3 6 29.82 1010 10 16 0.00 0.00
2:53 am 02:53 Clear 67 19.4 65 18.3 93 93 E 5 7 29.81 1010 10 16 0.00 0.00
3:53 am 03:53 Clear 68 20 66 18.9 93 93 Calm 29.81 1010 10 16 0.00 0.00
4:53 am 04:53 Clear 66 18.9 65 18.3 96 96 N 3 6 29.82 1010 10 16 0.00 0.00
5:53 am 05:53 Clear 66 18.9 65 18.3 96 96 E 3 6 29.84 1011 10 16 0.00 0.00
6:53 am 06:53 Sunny 69 20.6 67 19.4 93 93 ESE 7 11 29.85 1011 10 16 0.00 0.00
7:53 am 07:53 Sunny 71 21.7 67 19.4 87 87 SE 10 17 29.85 1011 10 16 0.00 0.00
8:53 am 08:53 Sunny 75 23.9 68 20 79 79 SE 13 20 29.87 1011 10 16 0.00 0.00
9:53 am 09:53 Sunny 78 25.6 69 20.6 74 74 SSE 12 19 29.87 1012 10 16 0.00 0.00
10:53 am 10:53 Sunny 81 27.2 69 20.6 67 67 SSE 9 15 29.87 1012 10 16 0.00 0.00
11:53 am 11:53 Sunny 84 28.9 66 18.9 55 55 SSE 8 13 29.87 1012 10 16 0.00 0.00
12:53 pm 12:53 Sunny 88 31.1 65 18.3 46 46 VRB 3 6 29.86 1011 10 16 0.00 0.00
1:53 pm 13:53 Sunny 89 31.7 66 18.9 47 47 SSE 5 7 29.85 1011 10 16 0.00 0.00
4:53 pm 16:53 Sunny 94 34.4 58 14.4 30 30 SE 9 15 29.77 1008 10 16 0.00 0.00
5:53 pm 17:53 Sunny 94 34.4 55 12.8 27 27 E 6 9 29.76 1008 10 16 0.00 0.00
6:53 pm 18:53 Sunny 93 33.9 59 15 32 32 ESE 10 17 29.75 1008 10 16 0.00 0.00
8:53 pm 20:53 Sunny 86 30 65 18.3 49 49 ESE 14 22 29.77 1008 10 16 0.00 0.00
9:53 pm 21:53 Clear 82 27.8 65 18.3 56 56 ESE 13 20 29.79 1009 10 16 0.00 0.00
10:53 pm 22:53 Clear 80 26.7 65 18.3 60 60 ESE 8 13 29.80 1009 10 16 0.00 0.00
11:53 pm 23:53 Clear 77 25 67 19.4 71 71 ESE 6 9 29.81 1010 10 16 0.00 0.00

Powered by Vaisala Xweather